Home > Weather > Salisbury > Past weeks

Flag for United Kingdom Weather for the Past 2 Weeks in Salisbury, England, United Kingdom

Now
54 °F

Partly sunny.


Feels Like: 49 °F
Forecast: 44 / 57 °F
Wind: 16 mph from Southwest

Location: Boscombe Down

Current Time: May 1, 2016 at 5:14:10 PM

Latest Report: May 1, 2016 at 3:50 PM


Visibility: N/A

Pressure: 30.33 "Hg

Humidity: 67%

Dew Point: 43 °F

Location of SalisburyLocation

Historic Weather in Salisbury — Graph

°F

Salisbury Temperature Yesterday

Maximum temperature yesterday: 52 °F (at 2:50 PM)
Minimum temperature yesterday: 32 °F (at 3:50 AM)
Average temperature yesterday: 41 °F

High & Low Weather Summary for the Past Weeks

 TemperatureHumidityPressure
High63 °F (Apr 21, 2:50 PM)100% (Apr 20, 5:50 AM)30.42 "Hg (Apr 20, 5:50 AM)
Low30 °F (Apr 17, 5:50 AM)31% (Apr 20, 6:50 PM)29.71 "Hg (Apr 16, 3:50 PM)
Average45 °F71%30.07 "Hg
* Reported Apr 16 3:50 PM — May 1 3:50 PM, Salisbury, Weather by CustomWeather, © 2016

Note: Actual official high and low records may vary slightly from our data, if they occured in-between our weather recording intervals... More about our weather records

Advertising

Salisbury Weather History for the Previous 24 Hours

Scroll right to see more
 ConditionsComfort  
Time TempWeatherWind HumidityBarometerVisibility
3:50 PM
Sun, May 1
54 °FPartly sunny.16 mph67%30.33 "HgN/A
2:50 PM54 °FPartly sunny.17 mph63%30.33 "HgN/A
1:50 PM57 °FPartly sunny.17 mph59%30.33 "HgN/A
12:50 PM54 °FPartly sunny.14 mph63%30.33 "HgN/A
11:50 AM54 °FPartly sunny.15 mph63%30.33 "HgN/A
10:50 AM50 °FBroken clouds.13 mph71%30.36 "HgN/A
9:50 AM48 °FScattered clouds.10 mph82%30.36 "HgN/A
8:50 AM45 °FQuite cool.6 mph81%30.36 "HgN/A
7:50 AM37 °FScattered clouds.5 mph100%30.36 "HgN/A
6:50 AM34 °FChilly.3 mph100%30.36 "Hg4 mi
5:50 AM34 °FFog.3 mph100%30.33 "Hg0 mi
4:50 AM34 °FFog.3 mph100%30.33 "Hg2 mi
3:50 AM36 °FFog.3 mph93%30.33 "Hg3 mi
2:50 AM37 °FChilly.5 mph93%30.33 "HgN/A
1:50 AM37 °FChilly.N/A93%30.33 "HgN/A
12:50 AM37 °FChilly.N/A93%30.33 "HgN/A
11:50 PM
Sat, Apr 30
37 °FChilly.2 mph93%30.33 "HgN/A
10:50 PM39 °FPassing clouds.6 mph87%30.33 "HgN/A
9:50 PM41 °FPassing clouds.N/A87%30.30 "HgN/A
8:50 PM43 °FBroken clouds.7 mph81%30.30 "HgN/A
7:50 PM41 °FLight rain. Broken clouds.7 mph93%30.27 "HgN/A
6:50 PM45 °FBroken clouds.9 mph71%30.27 "HgN/A
5:50 PM46 °FPartly sunny.17 mph66%30.24 "HgN/A
Weather by CustomWeather, © 2016

See weather overviewHow to use our weather pages